Temp_Advection
nan nan nan nan nan nan nan nan nan nan nan nan nan nan nan nan nan nan nan nan nan nan nan nan nan nan nan
nan -0 0 0 0 0 1 1 1 1 0 0 0 0 1 0 0 0 -0 -0 -0 -0 0 0 -0 0 nan
nan 0 0 0 0 1 1 1 1 1 0 0 1 1 1 1 -0 -0 -0 0 -0 -0 0 -0 -0 0 nan
nan 0 0 0 0 0 0 1 1 1 0 0 1 1 1 1 0 0 0 0 -0 -0 -0 -0 0 0 nan
nan 0 0 0 0 0 1 1 1 1 1 1 0 0 1 0 -0 0 0 -0 0 0 -0 -0 -0 -0 nan
nan 0 0 0 0 1 1 1 1 1 1 1 1 1 1 1 0 0 0 0 -0 -0 -0 -0 -0 -0 nan
nan -0 0 1 1 0 0 1 1 1 1 1 1 1 1 0 0 0 0 0 -0 -0 -0 0 -0 -0 nan
nan 0 0 0 0 0 0 1 1 1 1 1 0 0 0 0 0 1 0 -0 -0 0 0 0 0 -0 nan
nan 0 0 0 0 1 1 1 1 1 1 1 0 0 0 1 1 0 -0 0 0 0 0 0 0 -0 nan
nan 0 0 0 0 0 0 1 1 1 1 0 0 1 0 -0 0 0 0 0 0 0 0 0 0 -0 nan
nan 0 0 0 0 1 1 1 1 0 0 0 0 1 0 -0 -0 0 0 0 0 0 0 0 1 0 nan
nan 0 0 1 1 1 1 0 1 1 0 0 1 0 0 0 0 -0 0 0 0 0 -0 0 0 0 nan
nan 1 1 1 1 1 0 0 0 0 0 1 0 0 0 0 0 0 -0 0 0 -0 -0 0 0 0 nan
nan 1 1 1 0 0 0 0 1 1 0 0 0 0 0 0 0 0 -0 -0 0 -0 -1 -0 1 0 nan
nan 1 0 0 0 0 0 0 1 0 0 0 0 0 0 0 0 -0 -0 0 0 -0 -1 -1 0 1 nan
nan 0 0 1 1 1 1 0 1 0 0 0 0 0 0 -0 0 0 -0 -0 0 0 -0 -1 -1 0 nan
nan nan nan nan nan nan nan nan nan nan nan nan nan nan nan nan nan nan nan nan nan nan nan nan nan nan nan
Wind_Speed
19 17 22 27 23 25 26 26 24 24 24 24 26 26 27 25 26 24 22 22 22 21 21 23 22 22 23
24 23 20 21 21 21 23 23 24 24 24 23 24 26 26 26 26 25 23 23 22 22 23 23 23 23 24
28 27 24 24 23 25 25 25 25 25 24 24 26 26 25 25 25 25 24 23 24 24 24 23 23 24 25
32 29 28 29 26 26 26 27 28 27 27 26 28 25 24 23 24 25 24 24 24 25 23 23 24 25 25
34 32 33 32 30 29 29 28 29 28 29 30 28 25 23 22 26 25 25 25 24 25 24 23 24 25 25
36 36 36 34 31 30 28 28 28 32 35 34 29 27 24 24 25 25 25 23 25 25 24 24 24 24 26
35 37 34 32 30 29 28 29 33 33 30 24 24 24 22 24 24 24 22 24 25 25 25 25 24 25 26
33 32 32 30 28 28 28 28 30 30 26 24 23 21 20 22 22 22 23 23 24 24 25 23 26 26 27
29 29 28 29 28 27 26 27 25 25 25 23 22 20 20 21 22 22 21 22 23 23 21 25 26 27 27
28 26 25 27 27 25 23 24 25 23 23 22 20 20 18 21 20 19 18 18 19 22 23 24 27 27 27
25 25 27 27 24 21 21 22 20 21 15 14 17 18 18 17 16 14 16 19 21 21 22 24 24 24 29
21 22 23 22 20 18 19 19 19 18 16 16 17 16 15 15 16 16 16 18 20 21 22 22 21 23 22
20 20 19 18 17 18 18 17 16 14 15 14 14 14 14 15 16 17 16 18 20 16 18 22 23 23 24
16 17 18 18 17 16 16 16 15 16 14 13 13 13 14 14 15 14 15 15 19 20 21 20 21 20 21
17 19 19 19 17 17 16 15 14 12 11 12 12 12 13 13 13 14 14 15 18 20 22 22 18 19 19
18 19 20 20 19 19 17 15 13 11 12 12 12 12 12 12 13 13 14 16 17 17 18 22 21 18 19
16 19 21 20 21 20 18 17 15 14 14 13 12 11 10 11 14 13 14 16 17 15 15 18 22 20 20
Wind_Direction
262 253 246 245 245 245 246 247 249 252 252 253 257 263 269 276 280 283 287 288 289 295 298 301 302 301 303
259 258 254 251 248 246 247 247 248 249 249 251 254 258 264 272 278 278 282 283 290 292 295 299 300 302 301
257 256 256 253 249 245 244 242 243 245 248 250 255 258 264 269 273 276 278 283 288 290 294 297 297 298 298
250 254 258 256 253 250 248 248 246 247 250 258 264 262 266 269 272 272 273 283 283 286 291 292 293 297 299
249 251 253 256 259 260 255 252 250 251 255 259 264 265 268 270 272 273 278 281 282 291 292 291 296 298 301
253 253 255 257 260 259 259 253 247 261 259 261 261 263 266 268 269 272 278 279 287 289 291 295 297 299 302
252 254 257 258 258 257 258 258 265 262 258 257 261 264 264 264 266 271 271 280 282 287 291 296 296 301 301
248 253 256 257 255 261 262 258 253 256 250 259 262 262 262 263 266 270 276 276 281 287 292 293 298 301 303
253 254 255 255 252 252 249 247 240 241 248 252 256 261 262 267 270 271 271 277 282 286 288 294 298 304 304
245 250 248 246 255 256 247 236 234 241 245 242 251 256 265 271 271 269 272 272 280 286 290 295 303 303 304
249 249 252 256 251 246 237 231 232 236 236 236 249 257 255 264 271 273 280 281 285 288 294 299 302 304 308
247 248 246 242 235 229 225 228 230 227 231 247 257 261 258 263 273 281 284 285 288 293 296 299 301 305 309
236 235 231 227 225 222 224 221 218 225 240 246 252 251 255 266 278 284 290 294 296 296 301 305 309 315 315
233 227 224 221 220 224 222 220 229 231 243 252 251 253 261 268 276 284 295 298 299 300 305 311 315 322 321
232 232 226 225 224 220 221 228 231 237 238 240 245 256 264 273 285 294 300 299 301 308 313 316 320 329 323
239 236 233 230 228 223 225 226 223 226 234 242 251 260 273 282 290 294 301 303 304 309 313 317 323 334 328
243 235 230 231 229 223 223 221 218 223 234 242 250 260 273 283 294 304 306 301 304 308 311 314 322 334 335
Height
1557 1558 1560 1562 1563 1564 1566 1567 1568 1570 1570 1571 1571 1572 1572 1572 1572 1571 1570 1569 1567 1566 1564 1562 1560 1556 1555
1552 1554 1555 1558 1559 1559 1560 1561 1563 1564 1564 1565 1565 1566 1566 1567 1567 1567 1565 1564 1563 1561 1560 1557 1556 1553 1551
1546 1550 1550 1553 1552 1552 1553 1555 1558 1559 1559 1559 1559 1559 1560 1561 1561 1561 1561 1560 1558 1555 1554 1552 1550 1548 1546
1541 1542 1544 1548 1546 1547 1547 1548 1551 1553 1554 1554 1554 1553 1553 1554 1555 1555 1555 1554 1552 1551 1547 1546 1544 1543 1541
1533 1534 1537 1540 1539 1542 1543 1543 1545 1548 1547 1547 1548 1548 1548 1548 1549 1550 1550 1549 1547 1545 1544 1542 1540 1538 1536
1526 1526 1530 1530 1533 1535 1535 1536 1537 1541 1541 1541 1542 1542 1543 1543 1544 1544 1544 1544 1541 1539 1539 1537 1535 1533 1531
1517 1519 1522 1524 1526 1526 1527 1529 1530 1532 1533 1535 1536 1537 1537 1537 1538 1538 1538 1537 1535 1534 1533 1530 1529 1525 1525
1510 1512 1513 1516 1518 1520 1520 1520 1523 1525 1527 1529 1531 1531 1532 1533 1533 1533 1533 1531 1530 1529 1527 1525 1524 1521 1519
1503 1504 1506 1509 1510 1511 1512 1514 1516 1518 1521 1523 1525 1526 1527 1528 1528 1527 1526 1526 1525 1523 1522 1519 1517 1515 1514
1496 1498 1500 1503 1504 1505 1506 1508 1510 1512 1516 1518 1520 1522 1522 1522 1522 1522 1521 1521 1521 1519 1516 1513 1510 1508 1508
1491 1493 1494 1497 1497 1498 1501 1504 1505 1508 1511 1513 1515 1517 1518 1518 1518 1519 1519 1518 1517 1514 1512 1509 1506 1504 1500
1484 1487 1489 1491 1493 1494 1498 1500 1501 1505 1508 1510 1512 1513 1514 1515 1517 1515 1514 1513 1512 1511 1508 1505 1503 1499 1497
1480 1482 1485 1488 1490 1491 1494 1495 1498 1502 1504 1506 1508 1509 1510 1511 1511 1512 1510 1510 1508 1505 1505 1502 1498 1494 1490
1479 1481 1482 1484 1487 1489 1492 1494 1496 1498 1500 1503 1505 1506 1507 1507 1507 1507 1504 1506 1503 1500 1498 1497 1494 1490 1487
1477 1478 1480 1482 1484 1487 1489 1491 1493 1496 1498 1501 1502 1503 1504 1504 1503 1502 1501 1501 1498 1496 1493 1490 1490 1487 1483
1473 1475 1477 1479 1481 1484 1486 1488 1491 1493 1496 1498 1499 1500 1501 1500 1499 1498 1498 1496 1494 1492 1488 1485 1484 1483 1479
1470 1472 1474 1476 1478 1480 1483 1485 1487 1489 1492 1494 1495 1496 1496 1496 1496 1495 1494 1492 1490 1488 1485 1482 1478 1477 1474